Regional Weather Roundup
Issued by NWS

Home | Current Version | Previous Version | Text Only | Print | Product List | Glossary On
Versions: 1 2 3 4 5 6 7 8 9 10 11 12 13 14 15 16 17 18 19 20 21 22 23 24 25 26 27 28 29 30 31 32 33 34 35 36 37 38 39 40 41 42 43 44 45 46 47 48 49 50
000
ASHW40 PHFO 281543
RWRHI

WEATHER ROUNDUP FOR HAWAII
NATIONAL WEATHER SERVICE HONOLULU HI
500 AM HST SAT MAY 28 2016

THIS IS AN AUTOMATED REPORT THAT HAS NOT BEEN QUALITY CONTROLLED.

NOTE..."FAIR" INDICATES FEW OR NO CLOUDS BELOW 12,000 FEET WITH NO
SIGNIFICANT WEATHER AND/OR OBSTRUCTIONS TO VISIBILITY.

* - THESE SITES REPORT LIMITED FIELDS

HIZ001>004-281600-
KAUAI-NIIHAU-

CITY           SKY/WX    TMP DP  RH WIND       PRES   REMARKS
LIHUE APT      MOCLDY    74  69  85 E6        30.02S
PORT ALLEN*      N/A     72 N/A N/A NE7         N/A
POIPU*           N/A     73 N/A N/A N3          N/A
PRINCEVILLE*     N/A     70 N/A N/A S3          N/A
KOKOLE POINT*    N/A     73 N/A N/A MISG        N/A
MOLOAA DAIRY*    N/A     73  70  88 E3          N/A
WAIMEA HTS*      N/A     73  66  78 CALM        N/A
PUU OPAE*        N/A     66  63  88 N3          N/A
PUU LUA*       NOT AVBL
MAKAHA RIDGE*    N/A     66  64  94 CALM        N/A
$$

HIZ005>011-281600-
OAHU-

CITY           SKY/WX    TMP DP  RH WIND       PRES   REMARKS
HONOLULU       PTCLDY    74  69  85 CALM      30.00F
KALAELOA       PTCLDY    71  67  87 NE3       30.02S
KANEOHE MCB    MOCLDY    76  69  79 E6        29.98F
WHEELER FIELD  FAIR      68  67  96 E5        30.01S
BELLOWS*         N/A    N/A N/A N/A E15         N/A
KAHUKU*          N/A    N/A N/A N/A VRB6        N/A
WHEELER*         N/A    N/A N/A N/A W2          N/A
WAIANAE HARBOR   N/A    N/A N/A N/A NE3         N/A
DILLINGHAM*      N/A     64  61  88 MISG        N/A
KAHUKU TRN*      N/A     72  66  83 CALM        N/A
KAWAILOA*        N/A     70  64  83 E3G9        N/A
KII*             N/A     75  70  83 E12         N/A
MAKUA RANGE*     N/A     84  79  84 SE6         N/A  HX  96
OAHU FOREST NW NOT AVBL
SCHOFIELD BRK*   N/A     66  64  94 CALM        N/A
SCHOFIELD S*   NOT AVBL
WAIANAE VLY*   NOT AVBL
KUAOKALA*        N/A    N/A N/A N/A E1          N/A
HONOULIUULI*   NOT AVBL
MOKUOLOE IS*   NOT AVBL
PALEHUA*         N/A     64  64 100 NE9G15      N/A
WAIAWA PHB*    NOT AVBL
$$

HIZ012>013-281600-
MOLOKAI-

CITY           SKY/WX    TMP DP  RH WIND       PRES   REMARKS
MOLOKAI AIRPT  CLEAR     68  65  90 CALM      30.02S
KALAUPAPA      NOT AVBL
MAKAPULAPAI*     N/A     70  64  83 SE3G9       N/A
MOLOKAI 1*     NOT AVBL
PUU ALII*        N/A     58  58 100 NE2         N/A
$$

HIZ016-281600-
KAHOOLAWE-

CITY           SKY/WX    TMP DP  RH WIND       PRES   REMARKS
KAHOOLAWE*       N/A     68 N/A N/A E1          N/A
HAKIOAWA*        N/A     88  83  86 MISG      30.43S HX 110
HONOKANAIA*      N/A     75  64  67 NE13G24   29.94S
KANELOA*         N/A     72  64  78 NE14G21   30.07F
KEALIALALO*    NOT AVBL
LUA MAKIKA*    NOT AVBL
$$

HIZ014>015-281600-
LANAI-

CITY           SKY/WX    TMP DP  RH WIND       PRES   REMARKS
LANAI CITY     FAIR      66  65  96 NE5       30.06S
LANAI 1*       NOT AVBL
$$

HIZ017>028-281600-
MAUI-

CITY           SKY/WX    TMP DP  RH WIND       PRES   REMARKS
KAHULUI        CLEAR     69  67  93 CALM      30.00S
KAPALUA-W MAUI NOT AVBL
HANA AIRPORT   NOT AVBL
HANA*            N/A     72 N/A N/A E3G10       N/A
HALEAKALA SUMM   N/A     39  36  87 SE1G17      N/A
MAALAEA BAY*     N/A     75 N/A N/A N8G15       N/A
HALEAKALA*     NOT AVBL
KAUPO GAP*       N/A     57  55  94 W2G8        N/A
KULA 1*          N/A     48  45  87 E3          N/A
$$

HIZ023>026-281600-
BIG ISLAND OF HAWAII COAST AND LOWER SLOPES-

CITY           SKY/WX    TMP DP  RH WIND       PRES   REMARKS
KAILUA KONA    PTCLDY    76  64  66 NE9       29.98S
HILO           CLOUDY    70  67  90 SW8       30.03S
HONOKAA*         N/A     68 N/A N/A VRB1        N/A
KAWAIHAE MWT*    N/A     73 N/A N/A NE6         N/A
KAWAIHAE*        N/A     73 N/A N/A NE3       29.99S
SOUTH POINT*     N/A     68 N/A N/A N15G22      N/A
UPOLU AIRPORT*   N/A    N/A N/A N/A E13         N/A
KAMUELA*       PTSUNNY   63  59  88 NE12      30.11R
HAKALAU*         N/A     51  51 100 CALM        N/A
KALOKO-HONOKO*   N/A     73  63  68 CALM      29.98R
PALI 2*          N/A     63  59  88 SW3         N/A
KEALAKOMO*       N/A     73  63  68 VRB12G22    N/A
KAUPULEHU*       N/A    N/A N/A N/A S3          N/A
KAPAPALA*        N/A     65  63  92 NW2         N/A
LOWER KAHUKU*    N/A     61 -40   1 NE1         N/A
PUHE CS*         N/A     73  68  83 NE3         N/A
PUHO CS*         N/A     74  65  73 SE2         N/A
PTA KEAMUKU*     N/A     59  55  88 CALM        N/A
WAIKOLOA*        N/A    N/A N/A N/A E9          N/A
$$

HIZ027>028-281600-
BIG ISLAND OF HAWAII INTERIOR AND SUMMMITS-

CITY           SKY/WX    TMP DP  RH WIND       PRES   REMARKS
BRADSHAW FIELD MOCLDY    54  50  87 N1        30.31S
MK VISITOR CEN   N/A     48  19  32 VRB5        N/A
MAUNA KEA*       N/A     36  -6  17 N43         N/A  WCI  20
MAUNA LOA*       N/A     43 -11  10 MISG        N/A
MAUNA LOA 1*   NOT AVBL
PTA KIPUKA*      N/A     72  72 100 E5          N/A
PTA RANGE 17*    N/A     70  68  94 E3          N/A
PTA WEST*        N/A     72  72 100 S3          N/A
NENE CABIN*      N/A     50  50 100 NE1         N/A
AHUMOA*          N/A     51  51 100 E5          N/A
PTA PORTABLE*  NOT AVBL
PUU MALI*        N/A     52  50  93 SW7         N/A
$$

HIC003-281600-
NORTHWEST ISLANDS-

CITY           SKY/WX    TMP DP  RH WIND       PRES   REMARKS
MIDWAY ISLAND  CLOUDY    72  66  83 E15       30.12S
MIDWAY NOS*      N/A     72 N/A N/A MISG      30.11S
FRENCH FRIGATE NOT AVBL
$$

PHZ110>124-180-281600-
BUOY REPORTS

STATION/POSITION TIME  TEMP    WIND        PRES    WAVE   SWELL
                       AIR SEA DIR/SP/G            HT/PER HT/DIR
                 (UTC) (F)     (DEG/KT/KT) (MB)    (FT/S) (FT/D)
BUOY 51001       1500   78 80   40/ 12/ 16 1016.9S
BUOY 51101       1450   77 79  320/  4/  6 1016.2F   4/15   3/200
BUOY 51100       NOT AVBL
BUOY 51002       1450   77 79   80/ 10/ 14 1014.9R   5/ 8   5/110
BUOY 51003       1450   78 80   90/  4/  6 1015.5S   4/ 7   3/ 90
BUOY 51004       1450   77 79   70/ 14/ 17 1015.0R   7/ 8   5/ 90
BARBERS PT BUOY  NOT AVBL
WAIMEA BAY BUOY  1504      78                N/A     2/10   2/ 10
KAILUA BAY BUOY  1511      78                N/A     4/ 9   2/ 10
LANAI BUOY       1515      79                N/A     3/15   2/220
BARBERS PT 2     1503      79                N/A     3/15   2/210
PAUWELA MAUI     1509      78                N/A     5/10   2/340
HILO             1512      78                N/A     5/ 8   2/ 20
KANEOHE BAY BUOY 1506      77                N/A     4/10
HANALEI KAUAI    NOT AVBL
KAHULUI HARBOR   1500   75 79   CALM  /  3 1015.7R
HONOLULU HARBOR  1500   75 79  120/  1/  2 1016.6F
KILO NALU        NOT AVBL
HILO HARBOR      1500   70 78  230/  7/ 12 1016.5S
MOKUOLOE         1400   77 81   80/  7/  9 1016.2F
NAWILIWILI       1500   74 81  260/  5/  6 1016.2F
WHOTS BUOY       NOT AVBL
BUOY 51028       NOT AVBL
$$

......................KEY........................................
  SKY/WX - SKY CONDITIONS/PRESENT WEATHER
  TMP    - TEMPERATURE IN FAHRENHEIT
  DWPT   - DEWPOINT IN FAHRENHEIT
  RH     - RELATIVE HUMIDITY IN PERCENT
  WIND   - DIRECTION AND SPEED /MPH FOR ISLANDS...KTS FOR BUOYS/
  PRES   - MEAN SEA LEVEL PRESSURE IN INCHES OF HG
  VSB    - VISIBILITY IN MILES
  HX     - HEAT INDEX
  WCI    - WIND CHILL INDEX
  VRB    - VARIABLE WIND DIRECTION
  N/A    - NOT AVAILABLE




USA.gov is the U.S. government's official web portal to all federal, state and local government web resources and services.